This demonstration page uses our WeatherBlox Daily Observations layout. Learn more.

40.92945, -100.16068

Hourly Observations for March 1, 2015

Temp ( °F °C ) Dew Point ( °F °C ) Humidity (%) Winds ( mph kmh ) Pressure ( in mb ) Visibility ( mi km ) Precip ( " mm )
12:15 am 00:15 Clear 15 -9.7 12 -11.3 88 88 S 3 6 30.45 1031 10 16.0934 N/A
12:35 am 00:35 Clear 14 -9.9 12 -11.3 90 90 S 5 7 30.42 1030 10 16.0934 N/A
12:55 am 00:55 Clear 14 -9.9 11 -11.4 89 89 S 6 9 30.42 1030 10 16.0934 N/A
1:15 am 01:15 Clear 15 -9.2 13 -10.7 89 89 S 5 7 30.39 1029 10 16.0934 N/A
1:35 am 01:35 Clear 15 -9.3 12 -11 88 88 S 3 6 30.39 1029 10 16.0934 N/A
1:55 am 01:55 Clear 15 -9.5 12 -11.1 88 88 Calm 30.39 1029 10 16.0934 N/A
2:15 am 02:15 Mostly Cloudy 12 -11 10 -12.4 90 90 Calm 30.45 1031 10 16.0934 N/A
2:35 am 02:35 Cloudy 14 -10 11 -11.6 88 88 Calm 30.45 1031 10 16.0934 N/A
2:55 am 02:55 Cloudy 16 -9.1 13 -10.6 89 89 Calm 30.45 1031 10 16.0934 N/A
3:15 am 03:15 Cloudy 17 -8.6 13 -10.4 87 87 Calm 30.45 1031 10 16.0934 N/A
3:35 am 03:35 Cloudy 17 -8.5 14 -10.2 88 88 N 3 6 30.42 1030 10 16.0934 N/A
3:55 am 03:55 Cloudy 17 -8.1 14 -10 86 86 Calm 30.42 1030 10 16.0934 N/A
4:15 am 04:15 Cloudy 18 -7.8 15 -9.7 86 86 Calm 30.42 1030 10 16.0934 N/A
4:35 am 04:35 Cloudy 18 -7.7 15 -9.6 86 86 Calm 30.42 1030 10 16.0934 N/A
4:55 am 04:55 Mostly Cloudy 18 -8 15 -9.7 88 88 Calm 30.42 1030 10 16.0934 N/A
5:15 am 05:15 Mostly Cloudy 17 -8.6 14 -10.2 88 88 NW 5 7 30.45 1031 10 16.0934 N/A
5:35 am 05:35 Partly Cloudy 15 -9.5 12 -11 89 89 NW 3 6 30.45 1031 10 16.0934 N/A
5:55 am 05:55 Clear 14 -10 11 -11.4 90 90 WNW 3 6 30.45 1031 10 16.0934 N/A
6:15 am 06:15 Clear 13 -10.7 10 -12.1 90 90 WNW 5 7 30.48 1032 7 11.26538 N/A
6:35 am 06:35 Clear 12 -11.1 9 -12.6 89 89 W 3 6 30.48 1032 10 16.0934 N/A
6:55 am 06:55 Clear 12 -11.3 9 -12.9 88 88 W 5 7 30.48 1032 10 16.0934 N/A
7:15 am 07:15 Sunny 11 -11.9 8 -13.4 89 89 SW 3 6 30.5 1033 7 11.26538 N/A
7:35 am 07:35 Sunny 11 -11.5 9 -13 89 89 W 5 7 30.48 1032 7 11.26538 N/A
7:55 am 07:55 Sunny 13 -10.6 10 -12 90 90 W 3 6 30.48 1032 7 11.26538 N/A
8:15 am 08:15 Sunny 17 -8.5 15 -9.7 91 91 WNW 3 6 30.48 1032 7 11.26538 N/A
8:35 am 08:35 Sunny 20 -6.8 17 -8.4 89 89 NW 6 9 30.48 1032 10 16.0934 N/A
8:55 am 08:55 Sunny 21 -6 17 -8.2 85 85 NNW 6 9 30.48 1032 10 16.0934 N/A
9:15 am 09:15 Sunny 23 -4.9 17 -8.2 78 78 N 5 7 30.45 1031 10 16.0934 N/A
9:35 am 09:35 Sunny 25 -4.1 17 -8.5 72 72 N 3 6 30.48 1032 10 16.0934 N/A
9:55 am 09:55 Sunny 26 -3.1 16 -8.8 65 65 NNE 6 9 30.48 1032 10 16.0934 N/A
10:15 am 10:15 Sunny 28 -2.4 15 -9.3 60 60 N 8 13 30.45 1031 10 16.0934 N/A
10:35 am 10:35 Sunny 29 -1.7 14 -10.1 53 53 NNE 8 13 30.45 1031 10 16.0934 N/A
10:55 am 10:55 Sunny 30 -1 14 -10.1 50 50 NNE 5 7 30.45 1031 10 16.0934 N/A
11:15 am 11:15 Sunny 31 -0.4 13 -10.3 48 48 NE 6 9 30.45 1031 10 16.0934 N/A
11:35 am 11:35 Sunny 32 0 13 -10.6 45 45 NE 5 7 30.45 1031 10 16.0934 N/A
11:55 am 11:55 Sunny 32 0.2 12 -11.1 43 43 NNW 3 6 30.45 1031 10 16.0934 N/A
12:15 pm 12:15 Sunny 33 0.8 12 -11 41 41 N 3 6 30.42 1030 10 16.0934 N/A
12:35 pm 12:35 Sunny 34 1.2 12 -11 40 40 NW 7 11 30.42 1030 10 16.0934 N/A
1:15 pm 13:15 Sunny 36 2.3 11 -11.7 35 35 NNW 3 6 30.42 1030 10 16.0934 N/A
1:35 pm 13:35 Sunny 36 2.4 11 -11.6 35 35 N 9 15 30.42 1030 10 16.0934 N/A
1:55 pm 13:55 Sunny 37 3 11 -11.6 34 34 N 6 9 30.39 1029 10 16.0934 N/A
2:15 pm 14:15 Sunny 38 3.4 11 -11.7 32 32 NNE 7 11 30.39 1029 10 16.0934 N/A
2:35 pm 14:35 Sunny 39 3.8 11 -11.6 32 32 NW 8 13 30.36 1028 10 16.0934 N/A
2:55 pm 14:55 Sunny 39 4 11 -11.5 32 32 NNE 7 11 30.36 1028 10 16.0934 N/A
3:15 pm 15:15 Sunny 39 4.1 11 -11.4 32 32 NNE 5 7 30.36 1028 10 16.0934 N/A
3:35 pm 15:35 Sunny 40 4.6 12 -11 32 32 NNW 10 17 30.36 1028 10 16.0934 N/A
3:55 pm 15:55 Sunny 40 4.3 12 -10.9 32 32 NNW 8 13 30.36 1028 10 16.0934 N/A
4:15 pm 16:15 Sunny 40 4.4 12 -10.9 32 32 N 6 9 30.36 1028 10 16.0934 N/A
4:35 pm 16:35 Sunny 40 4.7 13 -10.7 32 32 NNW 7 11 30.36 1028 10 16.0934 N/A
4:55 pm 16:55 Sunny 39 4 12 -11 33 33 NW 5 7 30.36 1028 10 16.0934 N/A
5:15 pm 17:15 Sunny 40 4.2 13 -10.8 33 33 N 6 9 30.36 1028 10 16.0934 N/A
5:35 pm 17:35 Sunny 39 3.8 12 -11 33 33 NNW 5 7 30.36 1028 10 16.0934 N/A
5:55 pm 17:55 Cloudy 25 -4.1 13 -10.7 60 60 S 12 19 30.33 1027 10 16.0934 N/A
6:15 pm 18:15 Sunny 36 2 11 -11.5 36 36 N 3 6 30.42 1030 10 16.0934 N/A
6:35 pm 18:35 Clear 34 1.1 11 -11.5 39 39 NNE 5 7 30.42 1030 10 16.0934 N/A
6:55 pm 18:55 Clear 31 -0.3 10 -12.3 40 40 NE 5 7 30.45 1031 10 16.0934 N/A
7:15 pm 19:15 Clear 28 -2 10 -12.1 46 46 ENE 3 6 30.45 1031 10 16.0934 N/A
7:35 pm 19:35 Clear 28 -2.1 11 -11.9 47 47 E 3 6 30.45 1031 10 16.0934 N/A
7:55 pm 19:55 Clear 29 -1.6 11 -11.5 47 47 Calm 30.45 1031 10 16.0934 N/A
8:15 pm 20:15 Clear 28 -2.5 11 -11.7 50 50 Calm 30.45 1031 10 16.0934 N/A
8:35 pm 20:35 Clear 27 -2.9 11 -11.7 51 51 Calm 30.5 1033 10 16.0934 N/A
8:55 pm 20:55 Clear 25 -4 11 -11.8 55 55 Calm 30.5 1033 10 16.0934 N/A
9:15 pm 21:15 Clear 22 -5.5 11 -11.9 61 61 Calm 30.53 1034 10 16.0934 N/A
9:35 pm 21:35 Clear 25 -4 11 -11.9 55 55 Calm 30.53 1034 10 16.0934 N/A
9:55 pm 21:55 Clear 24 -4.7 11 -11.7 58 58 Calm 30.56 1035 10 16.0934 N/A
10:15 pm 22:15 Clear 23 -4.8 11 -11.8 58 58 Calm 30.56 1035 10 16.0934 N/A
10:35 pm 22:35 Clear 22 -5.3 10 -12 60 60 Calm 30.56 1035 10 16.0934 N/A
10:55 pm 22:55 Clear 23 -5 11 -11.7 60 60 E 3 6 30.56 1035 10 16.0934 N/A
11:15 pm 23:15 Clear 22 -5.4 12 -11.1 65 65 E 5 7 30.56 1035 10 16.0934 N/A
11:35 pm 23:35 Clear 24 -4.5 13 -10.3 64 64 Calm 30.53 1034 10 16.0934 N/A
11:55 pm 23:55 Clear 26 -3.3 14 -10.2 59 59 Calm 30.53 1034 10 16.0934 N/A

Powered by AerisWeather